RH
94 90 87 89 87 69 52 68 64 54 59 58 56 54 65 95 100 100 86 85 78 79 83 87 89 86 75 59 49 39 46 58 74
94 91 90 81 59 66 71 73 64 50 46 48 50 57 65 94 100 100 92 84 81 84 88 82 84 80 71 42 57 46 55 78 99
98 96 83 63 75 82 77 63 70 53 47 42 48 52 56 90 99 99 96 87 87 90 82 76 69 63 42 81 79 65 92 89 99
99 96 61 72 83 84 81 54 63 84 58 49 49 51 55 91 100 99 96 91 90 89 74 70 64 53 91 81 68 77 84 86 92
98 63 62 74 94 94 64 50 60 74 57 48 42 47 52 82 97 100 97 88 86 87 70 70 70 66 81 66 69 97 95 100 94
86 65 77 88 89 82 50 50 70 83 68 63 57 53 77 78 82 87 95 88 84 85 61 75 70 58 67 75 91 99 99 96 86
90 86 91 88 87 65 48 61 72 84 88 80 74 83 82 79 80 87 80 56 77 78 78 70 59 54 70 86 92 99 94 86 84
94 96 90 87 88 56 58 72 90 85 87 90 85 80 81 80 81 90 65 80 86 90 80 65 58 43 74 92 99 97 89 82 74
87 98 90 98 91 89 86 89 91 87 85 84 81 78 88 82 82 70 98 98 97 86 74 74 66 69 84 91 95 89 87 66 66
93 100 96 84 80 87 56 84 88 86 84 82 85 92 95 100 100 94 100 100 98 79 73 55 50 87 89 92 93 82 66 58 59
99 92 86 86 85 85 72 83 87 85 85 87 90 92 79 90 87 88 100 100 93 80 55 52 47 84 95 86 81 69 67 41 27
97 83 85 86 92 88 85 74 91 89 87 87 91 94 81 82 90 100 100 99 96 62 67 56 76 86 94 89 81 61 44 26 24
93 90 97 97 94 95 84 58 85 94 93 94 94 96 86 84 97 93 96 98 82 70 66 84 82 87 90 90 68 50 42 30 27
82 84 97 98 98 96 98 69 90 94 96 80 78 81 86 96 88 91 89 95 84 73 66 82 91 95 85 85 76 76 49 30 29
77 93 94 91 91 90 79 82 86 92 87 81 81 84 85 86 95 92 92 92 84 79 71 71 88 78 74 90 87 70 37 30 29
80 77 79 76 86 80 71 54 80 94 88 85 81 86 87 84 81 79 86 90 81 82 76 92 96 70 93 99 93 73 62 28 28
80 57 52 71 80 81 59 46 85 95 85 88 84 87 84 89 84 80 85 87 82 96 90 83 76 96 74 80 80 76 78 70 47
86 62 45 58 67 66 61 48 68 80 87 82 81 85 77 78 86 80 80 86 96 99 99 86 96 81 88 84 80 77 80 79 77
89 80 59 59 60 66 64 53 74 85 87 82 85 79 75 79 85 82 74 81 81 99 92 94 94 97 91 82 79 81 83 83 82
92 93 75 68 65 67 64 53 92 95 95 84 85 83 82 72 78 73 93 73 80 85 98 96 99 98 92 97 95 85 86 86 86
Wind_Speed
17 14 13 10 7 6 8 8 11 12 13 14 14 13 14 16 12 14 14 16 13 13 12 12 10 8 5 7 7 8 8 12 17
17 13 11 10 7 5 7 11 11 12 13 14 14 14 14 12 12 12 13 14 13 13 12 9 5 5 5 6 9 9 11 17 21
16 13 11 10 8 7 6 12 10 10 12 13 13 15 14 12 12 12 13 14 13 12 8 4 3 4 4 12 11 15 20 23 22
20 16 12 10 8 6 4 13 11 10 11 11 13 14 16 12 11 11 12 11 10 7 5 5 5 5 13 12 11 19 22 23 17
18 15 15 11 10 8 7 15 12 11 10 9 10 15 15 9 11 8 11 8 7 6 4 5 4 6 11 10 21 22 18 19 13
16 16 15 15 10 7 10 15 14 11 7 8 9 13 9 9 10 9 11 10 7 5 4 6 5 4 9 22 22 20 18 14 7
15 21 19 16 11 9 14 16 14 11 8 9 10 8 9 9 9 10 11 8 11 9 9 6 6 6 22 22 17 16 12 9 3
18 19 19 17 13 13 15 16 13 11 9 8 6 9 9 8 9 10 14 16 15 11 7 6 9 7 20 17 17 13 9 5 3
17 19 21 17 15 13 15 14 13 12 9 7 7 10 10 9 9 14 18 15 17 8 7 4 5 13 16 15 13 11 7 2 2
19 19 22 20 18 14 16 15 14 12 11 9 9 12 11 11 10 15 16 21 13 7 2 4 6 14 15 14 10 5 5 3 2
20 25 23 20 20 16 15 16 15 13 11 10 11 11 11 12 10 12 23 17 10 6 5 4 10 14 13 10 6 6 3 1 6
23 25 24 23 23 18 17 19 16 14 12 11 10 11 14 13 11 19 14 14 9 6 3 1 15 15 12 8 3 2 2 3 5
23 29 25 25 22 20 19 21 19 16 13 12 13 10 13 15 16 12 13 10 8 6 2 9 18 13 9 6 3 0 2 2 5
20 25 30 26 25 23 23 22 21 19 15 17 14 12 11 11 17 13 13 12 10 7 3 12 14 14 6 6 5 6 6 3 4
19 21 22 28 26 22 24 26 26 23 19 17 15 14 13 14 14 17 14 12 14 10 9 10 12 9 9 9 2 7 6 3 2
21 23 24 27 25 22 23 27 28 26 21 19 17 15 13 14 14 17 17 17 18 15 11 13 12 10 12 13 5 4 6 1 2
24 24 27 29 26 24 26 29 31 27 25 18 16 14 15 15 17 18 18 18 19 18 17 17 17 12 12 12 8 4 3 3 4
28 24 26 29 28 28 27 30 33 31 29 25 13 11 11 13 17 21 22 20 19 22 22 19 21 18 15 14 13 10 6 5 5
31 27 27 29 30 29 26 29 31 29 31 30 26 15 10 12 8 20 25 22 24 19 23 24 22 22 21 18 17 15 11 9 8
35 32 30 29 29 28 27 29 29 26 26 31 32 27 18 14 8 8 17 26 25 23 25 25 25 23 20 24 21 20 17 14 10
Wind_Direction
167 165 165 166 167 168 174 172 169 165 162 159 153 145 134 111 118 116 132 129 127 126 122 120 121 105 80 47 56 41 67 83 86
167 173 177 186 198 195 188 168 162 169 168 173 170 158 145 125 116 118 130 131 129 128 126 122 113 83 37 27 72 74 73 88 90
195 197 199 198 198 203 226 189 172 166 172 168 167 170 159 130 121 130 135 131 129 132 130 114 69 20 26 95 90 79 86 91 84
205 205 202 196 205 217 197 184 170 162 155 158 172 168 167 146 141 130 138 141 143 134 120 87 52 58 108 111 101 97 93 98 109
199 197 190 189 190 201 210 179 162 162 154 150 160 173 168 162 157 146 167 164 155 158 129 110 80 100 121 115 109 99 101 118 124
193 179 182 194 201 215 191 168 160 160 146 137 130 153 163 160 165 167 183 176 168 203 175 123 82 103 118 113 115 107 121 136 136
175 182 184 200 209 224 181 170 162 155 155 147 138 144 146 155 160 181 189 199 173 177 130 98 65 101 120 116 114 132 146 146 135
178 181 189 195 204 183 177 172 166 167 165 164 166 155 154 154 163 183 159 159 166 159 117 81 73 95 129 120 135 151 147 168 137
184 185 186 185 175 174 175 175 174 169 166 165 163 160 159 150 151 162 158 166 163 158 110 61 66 126 123 145 158 158 177 166 129
187 185 189 195 189 192 184 178 176 171 166 159 156 155 153 151 158 173 173 166 166 132 67 9 128 137 152 162 164 184 190 191 139
188 188 193 198 195 196 192 180 176 176 171 165 158 165 176 167 171 169 153 150 159 105 20 334 151 153 174 187 194 217 221 228 135
184 192 198 202 198 199 194 186 179 179 177 175 168 169 183 186 178 158 169 168 165 100 28 330 149 163 183 193 228 219 229 147 123
196 190 198 198 200 207 201 194 187 183 178 178 176 175 183 199 186 175 183 180 158 122 60 150 158 174 187 201 208 339 324 164 137
194 202 202 206 210 213 210 199 192 186 181 187 185 188 188 187 196 194 198 188 177 182 99 164 169 177 215 198 139 29 353 241 168
196 193 201 204 212 216 209 203 194 193 194 188 192 198 200 197 194 207 208 205 200 192 164 168 172 209 216 204 302 5 5 235 214
200 200 202 205 209 211 200 197 198 193 195 189 196 202 205 205 202 201 201 201 207 203 195 188 192 190 199 214 262 337 18 329 258
207 206 204 205 208 210 204 201 195 199 194 191 193 199 213 216 212 216 216 216 214 209 212 216 205 192 211 226 237 264 324 327 291
209 208 209 208 210 211 209 205 204 199 195 194 189 193 210 211 232 224 223 230 228 222 219 218 212 216 213 221 221 241 251 276 302
212 209 209 211 210 213 212 207 205 206 204 199 204 197 183 199 212 222 224 226 230 232 227 234 217 226 224 233 244 243 242 256 276
213 214 210 212 212 214 215 211 204 207 208 206 207 216 222 216 214 216 217 227 232 235 234 236 233 233 240 240 241 244 240 252 263